Flag for Greece Weather past 2 weeks in Nea Smyrni, Greece

Now
46 °F

Scattered clouds.


Feels Like: 45 °F
Forecast: 56 / 64 °F
Wind: 3 mph from Southeast

Location: Eleftherios Venizelos International Airport

Current Time: Jan 30, 2015 at 9:31:02 AM

Latest Report: Jan 30, 2015 at 8:50 AM


Visibility: N/A

Pressure: 29.68 "Hg

Humidity: 93%

Dew point: 45 °F

Location of Nea SmyrniLocation

Historic Weather in Nea Smyrni — Graph

°F

Nea Smyrni temperature yesterday

Maximum temperature yesterday: 54 °F (at 12:50 PM)
Minimum temperature yesterday: 48 °F (at 12:20 AM)
Average temperature yesterday: 50 °F

Past Weeks' High & Low Weather Summary

 TemperatureHumidityPressure
High64 °F (Jan 20, 12:20 PM)94% (Jan 21, 11:50 PM)30.33 "Hg (Jan 21, 11:50 PM)
Low34 °F (Jan 17, 5:50 AM)31% (Jan 15, 1:50 PM)29.65 "Hg (Jan 29, 2:20 PM)
Average52 °F75%29.98 "Hg
* Reported Jan 15 8:20 AM — Jan 30 8:20 AM, Nea Smyrni, Weather by CustomWeather, © 2014

Note: Actual official high and low records may vary slightly from our data, if they occured in-between our weather recording intervals... More about our weather records

Advertising

Nea Smyrni weather history for previous 24 hours

 ConditionsComfort  
Time TempWeatherWind HumidityBarometerVisibility
8:20 AM
Jan 30
45 °FScattered clouds.No wind87%29.68 "HgN/A
7:50 AM45 °FScattered clouds.3 mph93%29.68 "HgN/A
7:20 AM43 °FPassing clouds.5 mph87%29.68 "HgN/A
6:50 AM43 °FPassing clouds.No wind87%29.68 "HgN/A
6:20 AM43 °FPassing clouds.No wind87%29.68 "HgN/A
5:50 AM43 °FPassing clouds.2 mph87%29.68 "HgN/A
5:20 AM43 °FPassing clouds.3 mph93%29.68 "HgN/A
4:50 AM43 °FPassing clouds.2 mph93%29.68 "HgN/A
4:20 AM45 °FPassing clouds.1 mph93%29.68 "HgN/A
3:50 AM45 °FPassing clouds.5 mph93%29.68 "HgN/A
3:20 AM46 °FPassing clouds.3 mph93%29.68 "HgN/A
2:50 AM46 °FPassing clouds.No wind93%29.68 "HgN/A
2:20 AM46 °FPassing clouds.No wind93%29.68 "HgN/A
1:50 AM46 °FPassing clouds.2 mph93%29.68 "HgN/A
1:20 AM48 °FPassing clouds.5 mph87%29.68 "HgN/A
12:50 AM46 °FPassing clouds.5 mph93%29.68 "HgN/A
12:20 AM48 °FPassing clouds.3 mph87%29.68 "HgN/A
11:50 PM
Jan 29
48 °FPartly cloudy.No wind94%29.71 "HgN/A
11:20 PM48 °FPartly cloudy.1 mph94%29.71 "HgN/A
10:50 PM50 °FPartly cloudy.3 mph88%29.71 "HgN/A
10:20 PM50 °FPartly cloudy.2 mph82%29.71 "HgN/A
9:50 PM48 °FPartly cloudy.6 mph87%29.71 "HgN/A
9:20 PM48 °FPartly cloudy.5 mph87%29.71 "HgN/A
8:50 PM50 °FPartly cloudy.2 mph82%29.71 "HgN/A
8:20 PM50 °FPartly cloudy.2 mph82%29.68 "HgN/A
7:50 PM50 °FPartly cloudy.2 mph82%29.68 "HgN/A
7:20 PM50 °FPartly cloudy.3 mph88%29.68 "HgN/A
6:50 PM50 °FLight rain. Partly cloudy.2 mph88%29.68 "HgN/A
6:20 PM50 °FLight rain. Partly cloudy.6 mph88%29.68 "HgN/A
5:50 PM52 °FLight rain. Partly cloudy.7 mph82%29.68 "HgN/A
5:20 PM52 °FLight rain. Broken clouds.5 mph88%29.68 "HgN/A
4:50 PM52 °FLight rain. Broken clouds.6 mph88%29.65 "HgN/A
4:20 PM52 °FLight rain. Broken clouds.2 mph88%29.65 "HgN/A
3:50 PM52 °FLight rain. Partly sunny.3 mph88%29.65 "HgN/A
3:20 PM52 °FLight rain. Partly sunny.3 mph88%29.68 "HgN/A
2:50 PM52 °FLight rain. Mostly cloudy.1 mph77%29.68 "Hg4 mi
2:20 PM54 °FPartly sunny.6 mph77%29.65 "HgN/A
1:20 PM54 °FPartly sunny.5 mph77%29.68 "HgN/A
12:50 PM54 °FLight rain. Partly sunny.5 mph82%29.68 "HgN/A
12:20 PM52 °FLight rain. Partly sunny.5 mph82%29.71 "HgN/A
11:50 AM52 °FPartly sunny.7 mph82%29.71 "HgN/A
11:20 AM52 °FPartly sunny.7 mph82%29.71 "HgN/A
10:50 AM52 °FPartly sunny.8 mph82%29.71 "HgN/A
10:20 AM50 °FPartly sunny.1 mph88%29.71 "HgN/A
9:50 AM50 °FLight rain. Partly sunny.2 mph88%29.71 "HgN/A
9:20 AM50 °FLight rain. Mostly cloudy.3 mph88%29.71 "Hg4 mi
Weather by CustomWeather, © 2014

See weather overviewHow to use our weather pages